Weather in Veresayevo

Russia / Republic of Crimea     45°18′15″N   33°30′00″E
temp.,
°C
wind,
m/s
gust,
m/s
humid.,
%
clouds,
%
prec.,
mm/h
press.,
hPa
HPBL,
m
3 march, wed
wed300:00+4wsw7118037 0.0 1024462
03:00+6w6118154 0.0 1023591
06:00+2n5108360 0.0 1023381
09:00+5n696663 0.0 10251220
12:00+7nnw68551 0.0 1027993
15:00+8nnw67520 0.0 10271187
18:00+7nw46550 0.0 1027688
21:00+4wnw357422 0.0 1029149
4 march, thu
thu400:00+4nw2377100 0.0 102874
03:00+2wnw228367 0.0 102864
06:00+1sw12850 0.0 102689
09:00+6sw46670 0.0 1026681
12:00+8sw77610 0.0 1024914
15:00+8sw89630 0.0 1022800
18:00+7sw811720 0.0 1020773
21:00+6ssw912776 0.0 1019637
5 march, fri
fri500:00+6ssw913780 0.0 1018629
03:00+6ssw913830 0.0 1017577
06:00+6ssw812820 0.0 1016507
09:00+7ssw9127817 0.0 1015599
12:00+9ssw1013720 0.0 1014653
15:00+10ssw1013733 0.0 1013584
18:00+9ssw10138127 0.0 1012527
21:00+8ssw8128956 0.0 1013420
6 march, sat
sat600:00+8ssw7119290 0.0 1013318
03:00+8ssw589361 0.0 1014177
06:00+7ssw349159 0.0 101455
09:00+6nne8108479 0.0 1016358
12:00+7n7875100 0.0 1017617
15:00+4n6978100 0.3 1018668
18:00+5n6849100 0.1 10201290
21:00+4nnw6953100 0.1 1024810
7 march, sun
sun700:00+1n6116246 0.0 1026584
03:00−1n355623 0.0 1028244
06:00−2nne11520 0.0 1028139
09:00+1sw11420 0.0 1029263
12:00+4w44370 0.0 10291576
15:00+4w65370 0.0 10261569
18:00+3w55410 0.0 10241304
21:00+1w34510 0.0 1024268